#timestamp,LO_Frequency,Hit,StdDev 
1504940415.7,286047000.5,N,1.8
1504940435.6,286047001.2,N,1.8
1504940455.4,286047000.1,N,1.8
1504940475.2,286047000.1,N,1.7
1504940495.1,286046999.7,N,1.6
1504940496.0,286046999.7,N,1.5
1504940515.8,286047000.4,N,1.4
1504940535.7,286047000.1,N,1.4
1504940555.5,286047000.6,N,1.4
1504940575.3,286047002.2,N,1.5
1504940595.2,286047002.3,N,1.5
1504940615.0,286047002.7,N,1.6
1504940615.9,286047002.7,N,1.5
1504940635.8,286047000.1,N,1.4
1504940655.6,286047000.4,N,1.2
1504940675.4,286047000.2,N,1.1
1504940695.3,286046999.8,N,1.1
1504940715.1,286682708.0,Y,0.0
1504940735.9,286047003.9,P,1.6
1504940755.7,286047001.3,N,1.4
1504940775.5,286047004.0,N,1.5
1504940795.4,286047001.7,N,1.4
1504940815.2,286047001.8,N,1.3
1504940835.0,286047003.7,N,1.3
1504940835.9,286047003.7,N,1.3
1504940855.8,286047004.3,Y,0.0
1504940875.6,286047002.8,P,0.1
1504940895.5,286046999.8,N,1.4
1504940915.3,286046999.9,N,1.4
1504940935.1,286047000.1,N,1.4
1504940955.9,286047002.3,N,1.3
1504940975.7,286047002.7,N,1.3
1504940995.6,286046998.2,N,1.6
1504941015.4,286046998.3,N,1.8
1504941035.2,286046998.4,N,1.8
1504941055.1,286046999.0,N,1.8
1504941056.0,286046999.0,N,1.8
1504941075.8,286046996.5,N,2.0
1504941095.6,286046998.6,N,1.9
1504941115.5,286046998.8,N,1.9
1504941135.3,286046998.2,N,1.9
1504941155.2,286046998.1,N,1.8
1504941175.9,286047000.8,N,1.8
1504941195.7,286047000.6,N,1.8
1504941215.6,286047000.2,N,1.7
1504941235.4,286046999.8,N,1.7
1504941255.3,286047002.7,N,1.8
1504941275.1,286046999.8,N,1.7
1504941276.0,286046999.8,N,1.7
1504941295.8,286046999.8,N,1.7
1504941315.7,286047001.3,N,1.6
1504941335.5,286047004.3,N,1.8
1504941355.4,286047004.0,N,1.9
1504941375.2,286047001.4,N,1.9
1504941395.0,286047001.6,N,1.9
1504941395.9,286047001.6,N,1.9
1504941415.8,286047001.4,N,1.8
1504941435.6,286047002.1,N,1.8
1504941455.5,286047000.2,N,1.8
1504941475.3,286047000.7,N,1.8
1504941495.1,286047002.3,N,1.8
1504941515.9,286047002.0,N,1.8
1504941535.7,286047003.8,N,1.9
1504941555.5,286047001.4,N,1.8
1504941575.4,286047002.3,N,1.8
1504941595.2,286047002.6,N,1.8
1504941615.1,286046999.7,N,1.8
1504941616.0,286046999.7,N,1.6
1504941635.8,286047000.7,N,1.5
1504941655.6,286047001.0,N,1.5
1504941675.5,286047000.5,N,1.4
1504941695.3,286047000.2,N,1.3
1504941715.2,286047002.7,N,1.3
1504941735.9,286047002.0,N,1.3
1504941755.7,286047001.3,N,1.3
1504941775.6,286047001.8,N,1.3
1504941795.4,286047001.7,N,1.2
1504941815.3,286047001.7,N,1.2
1504941835.1,286047003.5,N,1.2
1504941855.8,286047003.0,N,1.2
1504941875.7,286047001.7,N,1.2
1504941895.5,286047001.4,N,1.1
1504941915.4,286047001.9,N,1.0
1504941935.2,286047002.3,N,1.0
1504941955.0,286047001.9,N,1.0
1504941955.9,286047001.9,N,1.0
1504941975.8,286047001.8,N,1.0
1504941995.6,286047005.5,Y,0.0
1504942015.5,286047004.1,P,1.2
1504942035.3,286047001.8,N,1.1
1504942055.1,286047002.5,N,1.0
1504942075.9,286047002.8,N,0.9
1504942095.7,286047000.0,N,1.2
1504942115.5,286046999.8,N,1.4
1504942135.4,286047000.2,N,1.4
1504942155.2,286047001.9,N,1.3
1504942175.1,286047003.5,N,1.4
1504942176.0,286047003.5,N,1.4
1504942195.8,286047005.5,Y,0.0
1504942215.6,286047002.1,P,0.1
1504942235.5,286047002.8,P,0.4
1504942255.3,286047002.7,P,0.4
1504942275.2,286046999.8,N,1.1
1504942295.9,286047002.4,N,1.0
1504942315.7,286046999.9,N,1.2
1504942335.6,286047004.4,Y,0.0
1504942355.4,286047001.2,P,0.2
1504942375.3,286046998.3,P,1.5
1504942395.1,286046999.0,N,1.4
1504942396.0,286046999.0,N,1.3
1504942415.8,286047000.9,N,1.3
1504942435.7,286046998.1,N,1.4
1504942455.5,286046998.6,N,1.3
1504942475.4,286047000.9,N,1.3
1504942495.2,286046999.9,N,1.3
1504942515.0,286047001.2,N,1.3
1504942515.9,286047001.2,N,1.3
1504942535.8,286046999.9,N,1.2
1504942555.6,286046999.9,N,1.2
1504942575.5,286047002.3,N,1.3
1504942595.3,286047000.4,N,1.2
1504942615.1,286047000.2,N,1.2
1504942635.9,286047000.1,N,1.2
1504942655.7,286047000.2,N,1.1
1504942675.5,286047000.1,N,1.1
1504942695.4,286047000.0,N,1.1
1504942715.2,286047000.5,N,1.1
1504942735.1,286047000.6,N,1.0
1504942736.0,286047000.6,N,1.0
1504942755.8,286047000.5,N,1.0
1504942775.6,286046999.9,N,1.0
1504942795.5,286047000.0,N,1.0
1504942815.3,286047000.0,N,0.9
1504942835.2,286047000.2,N,0.9
1504942855.9,286047002.6,N,1.0
1504942875.7,286047001.5,N,1.0
1504942895.6,286047002.2,N,1.1
1504942915.4,286046999.7,N,1.0
1504942935.2,286047002.8,N,1.1
1504942955.1,286046999.8,N,1.0
1504942956.0,286046999.8,N,1.0
1504942975.8,286047002.8,N,1.0
1504942995.7,286047002.6,N,1.0
1504943015.5,286047000.9,N,1.0
1504943035.3,286047000.2,N,1.0
1504943055.2,286047000.9,N,1.0
1504943075.0,286047002.1,N,1.0
1504943075.9,286047002.1,N,1.0
1504943095.8,286047001.8,N,1.0
1504943115.6,286046999.9,N,1.0
1504943135.4,286046999.8,N,1.0
1504943155.3,286047002.7,N,1.1
1504943175.1,286047001.7,N,1.1
1504943195.8,286047001.8,N,1.1
1504943215.7,286047002.0,N,1.1
1504943235.5,286047004.0,Y,0.0
1504943255.4,286047002.2,P,0.6
1504943275.2,286047002.1,P,0.5
1504943295.0,286047002.6,P,0.6
1504943295.9,286047002.6,Y,0.0
1504943315.8,286047000.8,P,0.6
1504943335.6,286047001.2,N,0.5
1504943355.5,286046998.8,N,1.2
1504943375.3,286046998.3,N,1.4
1504943395.1,286046998.2,N,1.5
1504943415.9,286047001.0,N,1.4
1504943435.7,286047000.9,N,1.4
1504943455.5,286047000.9,N,1.3
1504943475.4,286047000.3,N,1.3
1504943495.2,286047000.7,N,1.2
1504943515.1,286047000.6,N,1.2
1504943516.0,286047000.6,N,1.1
1504943535.8,286047001.2,N,1.1
1504943555.6,286046998.8,N,1.1
1504943575.5,286046998.5,N,1.2
1504943595.3,286046998.6,N,1.2
1504943615.2,286047001.1,N,1.2
1504943635.9,286047001.0,N,1.2
1504943655.7,286046998.1,N,1.2
1504943675.6,286047000.8,N,1.2
1504943695.4,286046998.4,N,1.2
1504943715.2,286046998.9,N,1.2
1504943735.1,286046998.3,N,1.3
1504943736.0,286046998.3,N,1.3
1504943755.8,286047000.7,N,1.3
1504943775.7,286046998.1,N,1.3
1504943795.5,286046998.2,N,1.3
1504943815.3,286047001.1,N,1.3
1504943835.2,286047000.8,N,1.3
1504943855.0,286047000.1,N,1.2
1504943855.9,286047000.1,N,1.2
1504943875.8,286047000.9,N,1.2
1504943895.6,286047000.5,N,1.2
1504943915.4,286047000.7,N,1.2
1504943935.3,286047000.8,N,1.1
1504943955.1,286046998.2,N,1.2
1504943975.9,286047000.5,N,1.1
1504943995.7,286047000.5,N,1.1
